Location: Sobotiste
(48.7170°N, 17.4000°E)
Time: 21:03:10
(UTC+02:00)

ITUPSAT 1 - Pass Details

Date: 22 March 2026
Orbit: 686 x 698 km, 98.4° (Epoch: 20 April)

Event Time Altitude Azimuth Distance (km) Brightness Sun altitude
Rises 00:13:37 0° 8° (N) 3,071 ? -40.6°
Reaches altitude 10° 00:16:00 10° 360° (N) 2,149 ? -40.6°
Enters shadow 00:16:34 13° 357° (N) 1,943 ? -40.6°
